Regional Weather Roundup
Issued by NWS

Home | Current Version | Previous Version | Text Only | Print | Product List | Glossary On
Versions: 1 2 3 4 5 6 7 8 9 10 11 12 13 14 15 16 17 18 19 20 21 22 23 24 25 26 27 28 29 30 31 32 33 34 35 36 37 38 39 40 41 42 43 44 45 46 47 48 49 50
000
ASCA42 TJSJ 242211
RWRPR
PUERTO RICO/U.S. VIRGIN ISLANDS HOURLY WEATHER ROUNDUP
NATIONAL WEATHER SERVICE SAN JUAN PR
600 PM AST THU APR 24 2014

PRZ001-004-242300-
PUERTO RICO

CITY           SKY/WX    TMP DP  RH WIND       PRES   REMARKS
SAN JUAN LMM   PTCLDY    84  73  70 E10       29.97R HX  91
MAYAGUEZ       PTSUNNY   79  73  83 E6        29.96S
AGUADILLA      PTSUNNY   81  72  74 NE12      29.99R
CEIBA          PTCLDY    82  73  74 S8        30.00R
$$

PRZ006-007-242300-
U.S. VIRGIN ISLANDS

CITY           SKY/WX    TMP DP  RH WIND       PRES   REMARKS
CHARLOTTE AMA  CLEAR     82  75  78 SE7       29.97S
CHRISTIANSTED  PTCLDY    82  72  69 SE9       29.99R
$$

HOURLY WEATHER ROUNDUP FOR THE NEWS MEDIA

CITY           SKY/WX    TMP DP  RH WIND       PRES   REMARKS
MIAMI          MOSUNNY   82  67  60 S12G18    29.95S
ORLANDO        PTSUNNY   83  65  54 SE15      29.93R
NEW YORK       MOSUNNY   62   5  10 NW21G33   29.88R
NEWARK         MOSUNNY   62   7  11 N29       29.89R
CHICAGO        CLOUDY    64  30  27 SE24      29.74F
HARTFORD       SUNNY     58  22  24 N13G28    29.72R
BOSTON         MOSUNNY   56  23  27 NW26G37   29.75R
DALLAS         SUNNY     83  44  25 NW18G28   29.82R
PHILADELPHIA   MOSUNNY   63  10  12 W16       29.97R



USA.gov is the U.S. government's official web portal to all federal, state and local government web resources and services.